QPF
0.00 0.00 0.00 0.00 0.00 0.00 0.00 0.00 0.00 0.00 0.00 0.00 0.00 0.00 0.00 0.00 0.00 0.00 0.00 0.01 0.01 0.00 0.00 0.00 0.00 0.00 0.00 0.00 0.00 0.00 0.00 0.00 0.00 0.00 0.00 0.00 0.00 0.00 0.00 0.00 0.00 0.00 0.00
0.00 0.00 0.00 0.00 0.00 0.00 0.00 0.00 0.00 0.00 0.00 0.00 0.00 0.00 0.00 0.00 0.00 0.01 0.00 0.00 0.00 0.00 0.00 0.00 0.00 0.00 0.00 0.00 0.00 0.00 0.00 0.00 0.00 0.00 0.00 0.00 0.00 0.00 0.00 0.00 0.00 0.00 0.00
0.00 0.00 0.00 0.00 0.00 0.00 0.00 0.00 0.00 0.00 0.00 0.00 0.00 0.00 0.00 0.00 0.01 0.01 0.00 0.00 0.00 0.00 0.00 0.00 0.00 0.00 0.00 0.00 0.00 0.00 0.00 0.00 0.00 0.00 0.00 0.00 0.00 0.00 0.00 0.00 0.00 0.00 0.00
0.00 0.00 0.00 0.00 0.00 0.00 0.00 0.00 0.00 0.00 0.00 0.00 0.00 0.01 0.00 0.00 0.01 0.01 0.00 0.00 0.00 0.00 0.00 0.00 0.00 0.00 0.00 0.00 0.00 0.00 0.00 0.00 0.00 0.00 0.00 0.00 0.00 0.00 0.00 0.00 0.00 0.00 0.00
0.00 0.00 0.00 0.00 0.00 0.00 0.00 0.00 0.00 0.00 0.00 0.00 0.00 0.01 0.00 0.00 0.01 0.00 0.00 0.00 0.00 0.00 0.00 0.00 0.00 0.00 0.00 0.00 0.00 0.00 0.00 0.00 0.00 0.00 0.00 0.00 0.00 0.00 0.00 0.00 0.00 0.00 0.00
0.00 0.00 0.00 0.00 0.00 0.00 0.00 0.00 0.00 0.00 0.00 0.00 0.00 0.00 0.00 0.00 0.00 0.00 0.00 0.00 0.00 0.00 0.00 0.00 0.00 0.00 0.00 0.00 0.00 0.00 0.00 0.00 0.00 0.00 0.00 0.00 0.00 0.00 0.00 0.00 0.00 0.00 0.00
0.00 0.00 0.00 0.00 0.00 0.00 0.00 0.00 0.00 0.00 0.00 0.00 0.00 0.00 0.01 0.00 0.00 0.00 0.00 0.00 0.00 0.00 0.00 0.00 0.00 0.00 0.00 0.00 0.00 0.00 0.00 0.00 0.00 0.00 0.00 0.00 0.00 0.00 0.00 0.00 0.00 0.00 0.00
0.00 0.00 0.00 0.00 0.00 0.00 0.00 0.00 0.00 0.00 0.00 0.00 0.00 0.00 0.00 0.00 0.00 0.00 0.00 0.00 0.00 0.00 0.00 0.00 0.00 0.00 0.00 0.00 0.00 0.00 0.00 0.00 0.00 0.00 0.00 0.01 0.01 0.00 0.00 0.00 0.00 0.00 0.00
0.00 0.00 0.00 0.00 0.00 0.00 0.00 0.00 0.00 0.00 0.00 0.00 0.00 0.00 0.00 0.00 0.00 0.00 0.00 0.00 0.00 0.00 0.00 0.00 0.00 0.00 0.00 0.00 0.00 0.00 0.00 0.00 0.00 0.00 0.00 0.01 0.01 0.00 0.00 0.00 0.00 0.00 0.00
0.00 0.00 0.00 0.00 0.00 0.00 0.00 0.00 0.00 0.00 0.00 0.00 0.00 0.00 0.00 0.00 0.00 0.00 0.00 0.00 0.00 0.00 0.00 0.00 0.00 0.00 0.00 0.00 0.00 0.00 0.00 0.00 0.00 0.00 0.00 0.01 0.01 0.00 0.00 0.00 0.00 0.00 0.00
0.00 0.00 0.00 0.00 0.00 0.00 0.00 0.00 0.00 0.00 0.00 0.00 0.00 0.00 0.00 0.00 0.00 0.00 0.00 0.00 0.00 0.00 0.00 0.00 0.00 0.00 0.00 0.00 0.00 0.00 0.00 0.00 0.00 0.00 0.00 0.01 0.01 0.00 0.00 0.00 0.00 0.00 0.00
0.00 0.00 0.00 0.00 0.00 0.00 0.00 0.00 0.00 0.00 0.00 0.00 0.00 0.00 0.00 0.00 0.00 0.00 0.00 0.00 0.00 0.00 0.00 0.00 0.00 0.00 0.00 0.00 0.00 0.00 0.00 0.00 0.00 0.00 0.00 0.01 0.01 0.00 0.00 0.00 0.00 0.00 0.00
0.01 0.00 0.00 0.00 0.00 0.00 0.00 0.00 0.00 0.00 0.00 0.00 0.00 0.01 0.00 0.00 0.00 0.00 0.00 0.00 0.00 0.00 0.00 0.00 0.00 0.00 0.00 0.00 0.00 0.00 0.00 0.00 0.00 0.00 0.00 0.01 0.00 0.00 0.00 0.00 0.00 0.00 0.00
0.01 0.00 0.00 0.00 0.00 0.00 0.00 0.00 0.00 0.00 0.00 0.00 0.01 0.00 0.00 0.00 0.00 0.00 0.00 0.00 0.00 0.00 0.00 0.00 0.00 0.00 0.00 0.00 0.00 0.00 0.00 0.00 0.00 0.00 0.00 0.00 0.00 0.00 0.01 0.00 0.00 0.00 0.00
0.00 0.00 0.00 0.00 0.00 0.00 0.00 0.00 0.00 0.00 0.00 0.00 0.00 0.00 0.00 0.00 0.00 0.00 0.00 0.00 0.00 0.00 0.00 0.00 0.00 0.00 0.00 0.00 0.00 0.00 0.00 0.00 0.00 0.00 0.00 0.00 0.00 0.00 0.00 0.00 0.00 0.00 0.00
0.01 0.00 0.00 0.00 0.00 0.00 0.00 0.00 0.00 0.00 0.00 0.00 0.00 0.00 0.00 0.00 0.00 0.00 0.00 0.00 0.00 0.00 0.00 0.00 0.00 0.00 0.00 0.00 0.00 0.00 0.00 0.00 0.00 0.00 0.00 0.00 0.00 0.00 0.00 0.00 0.00 0.00 0.00
0.01 0.00 0.00 0.00 0.00 0.01 0.00 0.00 0.00 0.00 0.00 0.00 0.00 0.00 0.00 0.00 0.00 0.00 0.00 0.00 0.00 0.00 0.00 0.00 0.00 0.00 0.00 0.00 0.00 0.00 0.00 0.00 0.00 0.00 0.00 0.00 0.00 0.00 0.00 0.00 0.00 0.00 0.00
0.04 0.00 0.00 0.00 0.00 0.01 0.00 0.00 0.00 0.00 0.00 0.00 0.00 0.00 0.00 0.00 0.00 0.00 0.00 0.00 0.00 0.00 0.00 0.00 0.00 0.00 0.00 0.00 0.00 0.00 0.00 0.00 0.00 0.00 0.00 0.00 0.00 0.00 0.00 0.00 0.00 0.00 0.00
0.03 0.01 0.00 0.00 0.00 0.01 0.02 0.00 0.00 0.00 0.00 0.00 0.00 0.00 0.00 0.00 0.00 0.00 0.00 0.00 0.00 0.00 0.00 0.00 0.00 0.00 0.00 0.00 0.00 0.00 0.00 0.00 0.00 0.00 0.00 0.00 0.00 0.00 0.00 0.00 0.00 0.00 0.00
0.02 0.13 0.07 0.01 0.04 0.04 0.04 0.05 0.00 0.00 0.00 0.00 0.00 0.00 0.00 0.00 0.00 0.00 0.00 0.00 0.00 0.00 0.00 0.00 0.00 0.00 0.00 0.00 0.00 0.00 0.00 0.00 0.00 0.00 0.00 0.00 0.00 0.00 0.00 0.00 0.00 0.00 0.00
0.07 0.08 0.06 0.01 0.08 0.08 0.06 0.07 0.04 0.00 0.00 0.00 0.00 0.00 0.00 0.00 0.00 0.00 0.00 0.00 0.00 0.00 0.00 0.00 0.00 0.00 0.00 0.00 0.00 0.00 0.00 0.00 0.00 0.00 0.00 0.00 0.00 0.00 0.00 0.00 0.00 0.00 0.00
0.04 0.09 0.03 0.01 0.03 0.08 0.08 0.10 0.06 0.02 0.00 0.00 0.00 0.00 0.00 0.00 0.00 0.00 0.00 0.00 0.00 0.00 0.00 0.00 0.00 0.00 0.00 0.00 0.00 0.00 0.00 0.00 0.00 0.00 0.00 0.00 0.00 0.00 0.00 0.00 0.00 0.00 0.00
0.08 0.10 0.06 0.01 0.01 0.04 0.07 0.16 0.08 0.02 0.00 0.00 0.00 0.00 0.00 0.00 0.00 0.00 0.00 0.00 0.00 0.00 0.00 0.00 0.00 0.00 0.00 0.00 0.00 0.00 0.00 0.00 0.00 0.00 0.00 0.00 0.00 0.00 0.00 0.00 0.00 0.00 0.00
0.10 0.11 0.07 0.03 0.01 0.01 0.02 0.15 0.08 0.02 0.00 0.00 0.00 0.00 0.00 0.00 0.00 0.00 0.00 0.00 0.00 0.00 0.00 0.00 0.00 0.00 0.00 0.00 0.00 0.00 0.00 0.00 0.00 0.00 0.00 0.00 0.00 0.00 0.00 0.00 0.00 0.00 0.00
0.00 0.03 0.06 0.04 0.03 0.01 0.01 0.08 0.11 0.01 0.00 0.00 0.00 0.00 0.00 0.00 0.00 0.00 0.00 0.00 0.00 0.00 0.00 0.00 0.00 0.00 0.00 0.00 0.00 0.00 0.00 0.00 0.00 0.00 0.00 0.00 0.00 0.00 0.00 0.00 0.00 0.00 0.00
0.02 0.05 0.05 0.08 0.08 0.03 0.02 0.03 0.05 0.02 0.00 0.00 0.00 0.00 0.00 0.00 0.00 0.00 0.00 0.00 0.00 0.00 0.00 0.00 0.00 0.00 0.00 0.00 0.00 0.00 0.00 0.00 0.00 0.00 0.00 0.00 0.00 0.00 0.00 0.00 0.00 0.00 0.00
MSLP
1016.25 1015.86 1016.11 1016.42 1016.78 1017.22 1017.42 1017.85 1018.22 1018.53 1019.13 1019.52 1019.61 1019.64 1019.78 1020.05 1020.43 1020.71 1020.91 1021.14 1021.19 1021.36 1021.53 1021.76 1021.91 1022.01 1022.27 1022.49 1022.72 1022.95 1023.14 1023.25 1023.21 1023.20 1023.33 1023.53 1023.56 1023.67 1023.93 1024.02 1024.06 1024.10 1024.28
1015.41 1016.09 1016.09 1016.73 1017.01 1017.45 1017.69 1018.01 1018.44 1018.91 1019.39 1019.95 1020.15 1020.19 1020.37 1020.62 1020.90 1021.21 1021.37 1021.67 1021.83 1021.95 1022.09 1022.24 1022.47 1022.59 1022.75 1023.04 1023.30 1023.40 1023.67 1023.79 1023.80 1023.85 1023.88 1024.02 1024.28 1024.42 1024.54 1024.61 1024.69 1024.62 1024.82
1015.63 1015.96 1016.47 1016.76 1017.30 1017.56 1018.02 1018.41 1018.60 1019.15 1019.75 1020.21 1020.55 1020.68 1020.92 1021.16 1021.38 1021.68 1021.97 1022.24 1022.41 1022.48 1022.63 1022.78 1023.00 1023.06 1023.24 1023.43 1023.71 1023.94 1024.15 1024.33 1024.48 1024.52 1024.64 1024.80 1024.94 1025.04 1025.13 1025.19 1025.33 1025.36 1025.48
1015.21 1016.05 1016.75 1017.14 1017.47 1017.76 1018.16 1018.69 1018.90 1019.30 1020.09 1020.59 1020.81 1021.07 1021.40 1021.64 1021.89 1022.20 1022.55 1022.73 1022.92 1023.06 1023.18 1023.28 1023.45 1023.62 1023.79 1023.97 1024.15 1024.48 1024.71 1024.93 1025.09 1025.17 1025.24 1025.45 1025.55 1025.63 1025.75 1025.89 1025.98 1025.91 1026.01
1015.33 1016.18 1016.93 1017.65 1017.63 1017.90 1018.31 1018.79 1019.21 1019.46 1020.48 1020.95 1021.15 1021.42 1021.80 1022.07 1022.34 1022.66 1023.00 1023.18 1023.44 1023.55 1023.60 1023.85 1024.12 1024.19 1024.28 1024.49 1024.70 1025.00 1025.25 1025.44 1025.75 1025.84 1025.94 1026.14 1026.21 1026.27 1026.36 1026.54 1026.67 1026.76 1026.77
1015.78 1016.36 1017.04 1017.69 1018.08 1018.25 1018.56 1018.81 1019.50 1019.89 1020.81 1021.22 1021.50 1021.74 1022.12 1022.47 1022.83 1023.18 1023.42 1023.63 1023.93 1024.02 1024.13 1024.41 1024.66 1024.55 1024.60 1024.83 1025.19 1025.38 1025.64 1025.91 1026.20 1026.45 1026.64 1026.70 1026.83 1026.97 1027.05 1027.21 1027.39 1027.48 1027.47
1016.03 1016.76 1017.28 1017.76 1018.22 1018.57 1018.89 1019.03 1019.66 1020.13 1021.17 1021.40 1021.79 1022.08 1022.49 1022.98 1023.29 1023.71 1023.96 1024.12 1024.40 1024.44 1024.68 1024.88 1025.01 1025.09 1025.17 1025.35 1025.54 1025.81 1026.13 1026.56 1026.82 1027.03 1027.17 1027.21 1027.40 1027.52 1027.57 1027.61 1027.85 1028.04 1028.06
1016.27 1016.93 1017.49 1018.02 1018.51 1018.96 1019.22 1019.42 1019.93 1020.40 1021.33 1021.69 1022.04 1022.39 1022.84 1023.41 1023.78 1024.17 1024.37 1024.71 1024.87 1024.89 1025.12 1025.25 1025.36 1025.62 1025.67 1025.81 1026.06 1026.40 1026.60 1026.83 1027.22 1027.46 1027.63 1027.83 1027.86 1028.06 1028.08 1028.13 1028.38 1028.36 1028.59
1016.59 1017.08 1017.70 1018.26 1018.99 1019.28 1019.43 1019.71 1020.24 1020.87 1021.45 1021.96 1022.26 1022.71 1023.23 1023.80 1024.25 1024.57 1024.78 1025.09 1025.21 1025.34 1025.56 1025.52 1025.77 1025.99 1026.12 1026.06 1026.56 1026.96 1027.09 1027.32 1027.63 1027.83 1027.96 1028.24 1028.46 1028.52 1028.59 1028.60 1028.72 1028.94 1029.13
1016.96 1017.58 1018.08 1018.35 1019.27 1019.59 1019.82 1020.06 1020.60 1021.09 1021.67 1022.14 1022.55 1023.05 1023.60 1024.10 1024.61 1024.95 1025.13 1025.44 1025.55 1025.68 1025.80 1025.97 1026.12 1026.32 1026.67 1026.89 1027.11 1027.28 1027.48 1027.87 1028.11 1028.31 1028.53 1028.72 1028.94 1029.02 1028.99 1029.07 1029.18 1029.30 1029.38
1017.33 1017.76 1018.08 1018.61 1019.37 1019.62 1020.03 1020.54 1020.99 1021.40 1021.84 1022.32 1022.86 1023.30 1023.90 1024.49 1024.94 1025.29 1025.47 1025.78 1025.95 1026.02 1026.09 1026.24 1026.33 1026.66 1026.80 1027.06 1027.48 1027.66 1027.95 1028.35 1028.58 1028.89 1029.03 1029.20 1029.35 1029.44 1029.42 1029.60 1029.57 1029.81 1029.90
1017.28 1017.70 1018.00 1018.77 1019.38 1019.43 1019.87 1020.79 1021.24 1021.68 1022.04 1022.59 1023.05 1023.59 1024.14 1024.76 1025.20 1025.49 1025.81 1026.09 1026.28 1026.33 1026.31 1026.43 1026.53 1026.71 1026.84 1027.25 1027.71 1028.10 1028.50 1028.80 1029.15 1029.37 1029.40 1029.58 1029.77 1029.87 1030.02 1030.11 1030.08 1030.19 1030.47
1016.57 1017.46 1018.10 1018.60 1019.01 1019.21 1020.04 1020.78 1021.29 1021.73 1022.17 1022.75 1023.06 1023.63 1024.26 1024.91 1025.53 1025.79 1026.16 1026.45 1026.60 1026.72 1026.89 1027.13 1027.15 1027.20 1027.34 1027.66 1028.09 1028.51 1028.77 1029.20 1029.57 1029.71 1029.71 1029.87 1030.09 1030.21 1030.21 1030.35 1030.46 1030.49 1030.76
1016.38 1016.97 1017.58 1018.14 1018.65 1019.28 1019.95 1020.42 1021.00 1021.38 1021.97 1022.57 1023.21 1023.74 1024.34 1025.10 1025.70 1025.95 1026.33 1026.63 1026.79 1026.97 1027.16 1027.39 1027.50 1027.34 1027.37 1027.63 1028.22 1028.73 1029.16 1029.57 1030.00 1030.23 1030.06 1030.07 1030.39 1030.56 1030.65 1030.61 1030.80 1030.91 1031.04
1016.04 1016.61 1017.23 1017.78 1018.58 1019.11 1019.58 1020.00 1020.60 1021.14 1021.64 1022.18 1023.02 1023.51 1024.20 1024.91 1025.42 1025.80 1026.22 1026.56 1026.85 1027.05 1027.28 1027.49 1027.60 1027.36 1027.45 1027.98 1028.48 1028.80 1029.36 1029.85 1030.31 1030.61 1030.61 1030.45 1030.61 1030.79 1031.00 1031.07 1031.13 1031.22 1031.24
1015.85 1016.44 1016.96 1017.59 1018.13 1018.52 1018.92 1019.48 1020.08 1020.72 1021.19 1021.92 1022.65 1023.29 1024.02 1024.49 1024.95 1025.29 1025.91 1026.28 1026.61 1027.02 1027.09 1027.41 1027.32 1027.59 1027.89 1028.29 1028.77 1028.95 1029.48 1030.04 1030.48 1030.82 1031.02 1031.03 1031.03 1031.16 1031.29 1031.39 1031.39 1031.50 1031.55
1015.55 1016.09 1016.60 1017.12 1017.56 1018.03 1018.37 1019.10 1019.57 1020.03 1020.65 1021.48 1022.25 1022.99 1023.62 1024.17 1024.58 1024.85 1025.40 1025.87 1026.35 1026.56 1026.88 1027.11 1027.53 1027.78 1028.12 1028.47 1028.98 1029.39 1029.77 1030.10 1030.43 1030.79 1031.11 1031.29 1031.39 1031.49 1031.52 1031.65 1031.70 1031.81 1031.89
1015.28 1015.86 1016.36 1016.80 1017.41 1018.07 1018.35 1018.74 1019.19 1019.58 1020.21 1020.98 1021.83 1022.61 1023.30 1023.84 1024.15 1024.56 1024.93 1025.43 1025.97 1026.40 1026.65 1027.34 1027.87 1028.32 1028.70 1028.81 1029.38 1029.65 1030.07 1030.29 1030.56 1030.87 1031.20 1031.42 1031.51 1031.68 1031.72 1031.95 1032.03 1032.00 1032.03
1014.65 1015.62 1016.14 1016.71 1017.33 1018.01 1018.61 1018.81 1019.13 1019.63 1020.20 1020.72 1021.47 1022.21 1022.96 1023.46 1023.86 1024.26 1024.65 1025.13 1025.57 1026.13 1026.70 1027.18 1027.89 1028.35 1028.87 1029.24 1029.69 1029.93 1030.02 1030.33 1030.71 1030.85 1031.21 1031.54 1031.76 1031.86 1031.95 1031.97 1032.16 1032.20 1032.13
1014.35 1015.14 1015.84 1016.57 1017.35 1017.94 1018.56 1018.94 1019.46 1019.90 1020.57 1020.78 1021.37 1021.91 1022.48 1023.06 1023.46 1024.11 1024.53 1024.92 1025.33 1025.96 1026.60 1027.09 1027.68 1028.29 1028.77 1029.33 1029.79 1030.22 1030.27 1030.36 1030.62 1030.81 1031.00 1031.31 1031.67 1031.90 1032.05 1032.06 1032.20 1032.28 1032.23
1014.21 1015.15 1015.73 1016.42 1017.24 1017.81 1018.61 1019.22 1019.82 1020.21 1020.84 1021.09 1021.27 1021.65 1022.09 1022.61 1023.11 1023.70 1024.32 1024.92 1025.09 1025.54 1026.33 1026.87 1027.64 1028.11 1028.89 1029.27 1029.99 1030.72 1030.97 1030.78 1030.71 1030.68 1030.74 1031.08 1031.56 1031.77 1032.09 1032.08 1032.22 1032.30 1032.25
1013.74 1014.69 1015.62 1016.26 1016.97 1017.82 1018.42 1019.01 1019.50 1019.99 1020.46 1020.80 1021.08 1021.24 1021.38 1022.17 1022.75 1023.06 1023.68 1024.39 1024.80 1025.23 1026.06 1026.69 1027.10 1028.04 1028.62 1028.97 1029.79 1030.55 1031.31 1031.36 1030.99 1030.77 1030.86 1030.93 1031.00 1031.40 1031.65 1031.88 1032.01 1032.20 1032.22
1013.96 1014.49 1015.36 1016.04 1016.74 1017.56 1018.32 1019.16 1019.61 1019.97 1020.32 1020.66 1021.32 1021.60 1021.68 1021.46 1021.59 1022.48 1023.05 1023.57 1024.24 1024.67 1025.55 1026.18 1026.59 1027.23 1028.21 1028.78 1028.79 1029.42 1030.76 1030.84 1030.93 1030.71 1030.78 1030.88 1030.97 1031.07 1031.10 1031.19 1031.60 1031.74 1031.99
1014.01 1014.44 1014.88 1015.85 1016.13 1017.26 1017.98 1018.72 1019.29 1019.45 1019.85 1020.00 1020.57 1021.33 1021.42 1021.69 1021.78 1022.03 1022.47 1023.01 1023.52 1024.05 1024.87 1025.50 1025.91 1026.61 1027.39 1028.31 1028.76 1028.43 1028.68 1029.15 1030.29 1030.83 1030.58 1030.61 1030.58 1030.68 1030.79 1031.04 1030.91 1031.12 1031.36
1013.41 1014.22 1014.96 1015.74 1016.21 1016.81 1017.61 1018.18 1018.83 1019.43 1019.48 1019.84 1020.52 1021.13 1021.39 1021.49 1021.40 1021.83 1021.86 1022.15 1022.78 1023.39 1024.10 1024.75 1025.44 1025.98 1026.60 1027.34 1027.63 1028.21 1028.47 1028.67 1028.87 1029.65 1030.23 1030.35 1030.49 1030.13 1030.13 1030.41 1030.46 1030.52 1030.85
1013.38 1014.13 1014.57 1015.16 1015.86 1016.50 1017.40 1017.91 1018.39 1018.85 1019.25 1019.89 1020.22 1020.56 1020.85 1021.08 1021.53 1021.59 1022.13 1022.11 1022.35 1022.67 1023.37 1024.04 1024.67 1025.33 1025.99 1026.53 1027.04 1027.35 1027.63 1028.07 1028.22 1028.69 1029.15 1029.57 1029.78 1029.75 1029.65 1029.76 1029.96 1030.03 1030.15
Thickness
5739 5744 5743 5742 5739 5737 5737 5734 5732 5729 5722 5716 5716 5717 5716 5715 5711 5709 5707 5705 5706 5705 5703 5700 5698 5697 5693 5690 5687 5683 5680 5679 5678 5676 5674 5670 5668 5665 5660 5656 5653 5650 5646
5748 5741 5743 5738 5738 5735 5735 5734 5731 5727 5721 5714 5712 5713 5712 5711 5708 5706 5705 5703 5702 5701 5700 5697 5695 5693 5690 5687 5683 5680 5677 5674 5674 5672 5670 5667 5663 5659 5656 5652 5648 5646 5642
5744 5742 5739 5738 5734 5735 5731 5730 5730 5726 5719 5713 5711 5710 5709 5708 5706 5704 5701 5699 5698 5698 5696 5694 5692 5690 5687 5684 5680 5676 5673 5670 5669 5668 5666 5662 5659 5655 5651 5648 5644 5642 5639
5747 5742 5736 5733 5732 5733 5731 5728 5727 5724 5716 5711 5709 5708 5706 5705 5703 5700 5698 5696 5695 5694 5692 5691 5689 5687 5684 5681 5677 5673 5669 5666 5664 5663 5661 5657 5654 5650 5647 5643 5640 5638 5635
5745 5739 5734 5728 5730 5731 5728 5726 5725 5724 5713 5709 5708 5706 5704 5702 5700 5697 5694 5694 5691 5691 5689 5688 5684 5683 5681 5677 5674 5669 5665 5662 5659 5657 5655 5653 5649 5645 5642 5639 5635 5632 5630
5739 5736 5733 5729 5726 5726 5725 5725 5721 5719 5710 5707 5706 5704 5702 5700 5696 5694 5691 5690 5688 5687 5685 5683 5679 5680 5678 5674 5670 5666 5662 5658 5655 5652 5650 5648 5645 5641 5638 5634 5629 5626 5625
5737 5733 5729 5727 5724 5722 5721 5723 5718 5716 5706 5706 5704 5702 5699 5696 5693 5690 5688 5687 5685 5684 5681 5677 5676 5675 5672 5669 5667 5662 5657 5653 5651 5650 5646 5644 5641 5637 5634 5631 5626 5623 5621
5735 5731 5726 5722 5719 5717 5717 5718 5715 5712 5704 5703 5701 5700 5696 5692 5689 5686 5685 5682 5681 5680 5676 5673 5672 5669 5667 5665 5661 5658 5654 5651 5648 5647 5644 5641 5637 5633 5630 5628 5623 5620 5617
5729 5727 5722 5718 5713 5712 5714 5714 5710 5705 5702 5699 5698 5696 5693 5689 5685 5682 5681 5679 5678 5676 5672 5670 5668 5665 5663 5662 5657 5654 5651 5647 5645 5643 5640 5637 5632 5629 5626 5624 5621 5617 5614
5723 5719 5717 5715 5709 5707 5708 5708 5704 5701 5698 5696 5695 5693 5689 5685 5682 5680 5678 5676 5675 5672 5669 5665 5664 5662 5658 5656 5653 5651 5648 5644 5642 5639 5636 5632 5628 5626 5623 5621 5617 5614 5612
5717 5716 5714 5711 5706 5705 5704 5701 5698 5696 5694 5692 5690 5689 5685 5682 5678 5676 5675 5673 5671 5669 5667 5663 5661 5658 5656 5654 5648 5648 5644 5640 5637 5634 5631 5627 5625 5622 5620 5616 5614 5611 5608
5709 5710 5710 5706 5703 5704 5701 5695 5693 5691 5690 5687 5686 5685 5681 5679 5676 5674 5672 5669 5668 5666 5664 5661 5658 5656 5656 5652 5648 5643 5640 5636 5632 5630 5627 5624 5621 5618 5615 5612 5609 5607 5604
5709 5706 5704 5702 5702 5702 5697 5693 5690 5688 5687 5684 5685 5681 5678 5676 5673 5672 5669 5667 5665 5663 5660 5656 5654 5652 5651 5648 5643 5639 5637 5632 5629 5626 5623 5621 5617 5615 5612 5609 5607 5605 5601
5706 5705 5704 5702 5701 5698 5694 5692 5690 5688 5686 5684 5682 5679 5676 5673 5670 5669 5667 5664 5663 5660 5658 5655 5652 5652 5650 5646 5642 5636 5633 5629 5625 5623 5621 5618 5614 5611 5609 5606 5603 5601 5599
5703 5703 5702 5700 5696 5694 5693 5692 5690 5687 5686 5685 5680 5678 5674 5671 5669 5668 5665 5663 5660 5658 5656 5654 5651 5652 5650 5643 5638 5635 5630 5626 5622 5619 5617 5615 5612 5608 5606 5602 5600 5599 5597
5701 5699 5699 5698 5695 5695 5695 5693 5689 5686 5685 5683 5680 5676 5673 5672 5671 5669 5665 5663 5660 5656 5655 5653 5652 5649 5647 5641 5635 5631 5627 5623 5619 5616 5613 5611 5608 5605 5603 5600 5598 5596 5594
5699 5698 5697 5697 5696 5694 5694 5691 5689 5687 5685 5682 5679 5676 5672 5671 5671 5671 5667 5663 5660 5658 5655 5652 5649 5646 5643 5639 5634 5629 5624 5621 5618 5615 5612 5609 5606 5602 5600 5598 5596 5594 5591
5696 5695 5694 5695 5694 5690 5690 5688 5687 5687 5683 5682 5678 5677 5671 5670 5671 5671 5668 5665 5660 5657 5655 5650 5645 5641 5637 5635 5631 5627 5622 5618 5616 5613 5610 5607 5605 5602 5598 5595 5593 5592 5589
5697 5693 5691 5690 5688 5686 5683 5684 5683 5683 5681 5680 5676 5676 5669 5669 5669 5668 5668 5664 5661 5657 5653 5649 5644 5640 5634 5630 5625 5623 5621 5618 5614 5611 5609 5605 5603 5601 5598 5595 5592 5590 5588
5695 5692 5689 5686 5681 5681 5678 5676 5675 5676 5677 5676 5672 5673 5670 5667 5668 5666 5664 5662 5659 5655 5651 5647 5643 5638 5634 5628 5624 5619 5617 5616 5614 5611 5608 5604 5602 5599 5597 5595 5592 5590 5586
5687 5683 5684 5681 5678 5677 5675 5670 5666 5666 5667 5669 5666 5668 5668 5666 5666 5663 5662 5658 5657 5654 5650 5646 5641 5637 5631 5626 5619 5612 5609 5610 5610 5610 5609 5606 5600 5598 5595 5594 5592 5589 5585
5683 5682 5678 5677 5673 5670 5671 5668 5663 5661 5661 5666 5663 5664 5668 5663 5662 5662 5660 5656 5654 5652 5648 5644 5641 5633 5629 5626 5617 5609 5602 5602 5606 5607 5606 5606 5604 5599 5596 5593 5591 5588 5586
5673 5673 5673 5672 5670 5665 5665 5659 5657 5655 5657 5659 5655 5652 5657 5663 5665 5661 5660 5657 5654 5652 5647 5644 5641 5636 5628 5624 5625 5615 5599 5598 5600 5604 5604 5604 5603 5601 5599 5596 5590 5588 5586
5664 5665 5665 5665 5669 5662 5660 5657 5654 5654 5653 5657 5654 5650 5649 5653 5657 5657 5657 5656 5655 5652 5648 5644 5642 5637 5631 5625 5620 5623 5619 5613 5602 5598 5602 5602 5602 5602 5600 5598 5596 5592 5588
5659 5656 5658 5657 5660 5661 5657 5656 5651 5648 5652 5654 5651 5647 5644 5644 5652 5652 5656 5655 5653 5653 5649 5645 5640 5637 5633 5629 5627 5620 5618 5615 5612 5604 5598 5599 5599 5602 5601 5599 5597 5596 5591
5653 5652 5655 5655 5654 5654 5651 5650 5648 5647 5647 5646 5647 5648 5645 5643 5641 5642 5644 5647 5647 5650 5648 5643 5639 5636 5632 5629 5628 5625 5621 5616 5614 5609 5604 5600 5601 5600 5601 5599 5597 5596 5593